{"data":{"norad_id":43622,"epoch":"2026-09-18T23:11:06.497088Z","epoch_age_seconds":146934,"freshness":"FRESH","line1":"1 43622U 18072A   26261.96604742 -.00000016  00000+0  00000+0 0  9996","line2":"2 43622  56.7109  59.5699 0004097 325.8897  34.1026  1.86231216 54401","mean_motion":1.86231216,"eccentricity":0.0004097,"inclination_deg":56.7109,"raan_deg":59.5699,"arg_perigee_deg":325.8897,"mean_anomaly_deg":34.1026,"bstar":0,"rev_number":5440,"period_min":773.23234575239,"perigee_km":21516.596829299,"apogee_km":21539.463142527,"semimajor_km":27906.166985913,"source":"CELESTRAK","updated_at":"2026-09-20T09:00:46.709684Z"}}